NORTHEAST SUFFOLK  -  Rip Current Statement Rip Current Statement        NORTHERN NASSAU  -  Rip Current Statement Rip Current Statement        NORTHERN QUEENS  -  Rip Current Statement Rip Current Statement        NORTHWEST SUFFOLK  -  Rip Current Statement Rip Current Statement        SOUTHEAST SUFFOLK  -  Rip Current Statement Rip Current Statement        SOUTHERN NASSAU  -  Rip Current Statement Rip Current Statement        SOUTHERN QUEENS  -  Rip Current Statement Rip Current Statement        SOUTHWEST SUFFOLK  -  Rip Current Statement Rip Current Statement      

Active alerts

Northern Queens
  Details for Northern Queens Rip Current Statement
Southern Queens
  Details for Southern Queens Rip Current Statement
Northern Nassau
  Details for Northern Nassau Rip Current Statement
Southern Nassau
  Details for Southern Nassau Rip Current Statement
Northwest Suffolk
  Details for Northwest Suffolk Rip Current Statement
Southwest Suffolk
  Details for Southwest Suffolk Rip Current Statement
Northeast Suffolk
  Details for Northeast Suffolk Rip Current Statement
Southeast Suffolk
  Details for Southeast Suffolk Rip Current Statement


WXM80 ListenWXM80 Stop

You find our weather info also at:

UK Metoffice

WeatherCloud

Weather Underground

Northeastern Weather Network

AWEKAS

Citizen Weather Observer Program (CWOP)

HAMweather, WeatherForYou, PWS Weather


Weather Underground History page Text

Daily Summary for September 1, 2017 Units:  Metric    English   Both
« Previous Day
Next Day »
Daily Weekly Monthly Yearly Custom
  High: Low: Average:
Temperature: 23.7 °C 13.1 °C 18.2 °C
Dew Point: 12.2 °C 6.7 °C 8.2 °C
Humidity: 69 % 34 % 54 %
Wind Speed: 20 km/h 0 km/h 5.3 km/h
Wind Gust: 29.6 km/h - -
Wind:- - South
Pressure: 1020.5 hPa 1013.4 hPa -
Precipitation: 0 mm    
Historical Graphs
 
 
Tabular Data for September 1, 2017
Time Temperature Dew Point Pressure Wind Wind Speed Wind Gust Humidity Rainfall Rate (Hourly)
00:02 18.8 °C 11.9 °C 1013.4 hPa NNW 8.9 km/h 16.7 km/h 64 % 0 mm
00:12 18.6 °C 11.8 °C 1013.8 hPa NNE 9.5 km/h 24.1 km/h 65 % 0 mm
00:17 18.4 °C 12.2 °C 1013.8 hPa NNE 11.6 km/h 18.5 km/h 67 % 0 mm
00:22 18.3 °C 12.1 °C 1014.1 hPa North 10 km/h 18.5 km/h 67 % 0 mm
00:27 18.3 °C 12.1 °C 1014.1 hPa NW 10.1 km/h 14.5 km/h 67 % 0 mm
00:32 18.1 °C 11.9 °C 1014.1 hPa NNE 6.3 km/h 16.7 km/h 67 % 0 mm
00:37 18 °C 12 °C 1014.1 hPa NNE 7.9 km/h 14.8 km/h 68 % 0 mm
00:39 18 °C 12 °C 1014.1 hPa North 10.1 km/h 16.7 km/h 68 % 0 mm
00:44 17.9 °C 11.7 °C 1014.1 hPa NNE 9.5 km/h 20.4 km/h 67 % 0 mm
00:49 17.8 °C 11.6 °C 1014.4 hPa NNW 6 km/h 11.1 km/h 67 % 0 mm
00:54 17.7 °C 11.4 °C 1014.4 hPa NNE 9.2 km/h 29.6 km/h 67 % 0 mm
00:59 17.5 °C 11.1 °C 1014.8 hPa NNE 9 km/h 14.8 km/h 66 % 0 mm
01:04 17.4 °C 11.5 °C 1014.4 hPa North 11.4 km/h 16.7 km/h 68 % 0 mm
01:09 17.3 °C 11.2 °C 1014.4 hPa NNW 11.9 km/h 25.9 km/h 67 % 0 mm
01:15 17.3 °C 11.1 °C 1014.4 hPa NNE 10.9 km/h 18.5 km/h 67 % 0 mm
01:20 17.2 °C 11 °C 1014.4 hPa NNW 10.1 km/h 14.8 km/h 67 % 0 mm
01:25 17.1 °C 11.2 °C 1014.4 hPa NNE 2.9 km/h 9.3 km/h 68 % 0 mm
01:30 17.1 °C 11.1 °C 1014.4 hPa NNE 4.7 km/h 11.3 km/h 68 % 0 mm
01:35 16.9 °C 10.8 °C 1014.4 hPa NNW 8.5 km/h 18.5 km/h 67 % 0 mm
01:40 16.9 °C 10.7 °C 1014.4 hPa NNE 9.3 km/h 18.5 km/h 67 % 0 mm
01:45 16.8 °C 10.7 °C 1014.4 hPa NNE 6.4 km/h 14.8 km/h 67 % 0 mm
01:50 16.7 °C 10.3 °C 1014.4 hPa NNE 4.8 km/h 17.7 km/h 66 % 0 mm
01:55 16.7 °C 10.1 °C 1014.4 hPa North 8.4 km/h 14.8 km/h 65 % 0 mm
02:00 16.6 °C 10.2 °C 1014.4 hPa North 9 km/h 16.7 km/h 66 % 0 mm
02:05 16.5 °C 9.9 °C 1014.8 hPa North 6.8 km/h 18.5 km/h 65 % 0 mm
02:10 16.4 °C 9.6 °C 1014.8 hPa NNW 13.8 km/h 22.2 km/h 64 % 0 mm
02:15 16.4 °C 9.6 °C 1014.8 hPa NE 11.9 km/h 18.5 km/h 64 % 0 mm
02:20 16.3 °C 9.5 °C 1014.8 hPa North 8.7 km/h 20.4 km/h 64 % 0 mm
02:22 16.3 °C 9.5 °C 1014.4 hPa NNE 10.9 km/h 16.7 km/h 64 % 0 mm
02:27 16.3 °C 9.7 °C 1014.8 hPa WNW 6.3 km/h 18.5 km/h 65 % 0 mm
02:32 16.2 °C 9.4 °C 1014.8 hPa NNE 6.9 km/h 16.7 km/h 64 % 0 mm
02:37 16.2 °C 9.3 °C 1015.1 hPa NNE 4.5 km/h 16.7 km/h 64 % 0 mm
02:42 16.1 °C 9.5 °C 1014.8 hPa NNE 5.8 km/h 11.1 km/h 65 % 0 mm
02:47 16 °C 9.2 °C 1014.8 hPa NNE 5 km/h 14.8 km/h 64 % 0 mm
02:52 15.9 °C 9.1 °C 1014.8 hPa NNW 7.9 km/h 14.8 km/h 64 % 0 mm
02:57 15.9 °C 9.1 °C 1014.8 hPa NE 7.1 km/h 16.7 km/h 64 % 0 mm
03:02 15.8 °C 9.1 °C 1014.8 hPa NNE 5.8 km/h 14.5 km/h 64 % 0 mm
03:07 15.7 °C 8.7 °C 1015.1 hPa NE 10.5 km/h 14.8 km/h 63 % 0 mm
03:12 15.7 °C 8.9 °C 1015.1 hPa NNE 4.7 km/h 14.8 km/h 64 % 0 mm
03:17 15.6 °C 8.8 °C 1014.8 hPa NE 8.4 km/h 22.2 km/h 64 % 0 mm
03:22 15.5 °C 8.5 °C 1014.8 hPa North 13 km/h 20.4 km/h 63 % 0 mm
03:27 15.4 °C 8.7 °C 1015.1 hPa North 10.5 km/h 20.4 km/h 64 % 0 mm
03:32 15.4 °C 8.8 °C 1015.1 hPa NE 6.3 km/h 13 km/h 65 % 0 mm
03:37 15.3 °C 8.8 °C 1015.1 hPa NNE 12.6 km/h 17.7 km/h 65 % 0 mm
03:42 15.2 °C 8.7 °C 1015.1 hPa North 20 km/h 25.9 km/h 65 % 0 mm
03:48 15.2 °C 8.6 °C 1015.1 hPa North 8.9 km/h 16.1 km/h 65 % 0 mm
03:53 15.1 °C 8.6 °C 1015.1 hPa North 8.2 km/h 18.5 km/h 65 % 0 mm
03:58 15.1 °C 8.3 °C 1015.1 hPa North 9 km/h 22.2 km/h 64 % 0 mm
04:03 15 °C 8.4 °C 1015.1 hPa NNW 14.3 km/h 19.3 km/h 65 % 0 mm
04:08 14.9 °C 8.4 °C 1015.5 hPa ENE 7.7 km/h 16.7 km/h 65 % 0 mm
04:13 14.8 °C 8.3 °C 1015.5 hPa North 8.2 km/h 14.8 km/h 65 % 0 mm
04:18 14.7 °C 8.7 °C 1015.8 hPa NNW 8.2 km/h 16.1 km/h 67 % 0 mm
04:23 14.6 °C 8.7 °C 1015.5 hPa NNE 7.4 km/h 18.5 km/h 68 % 0 mm
04:28 14.4 °C 8.6 °C 1015.8 hPa North 6.9 km/h 16.1 km/h 68 % 0 mm
04:33 14.3 °C 8.7 °C 1015.8 hPa NNE 10 km/h 18.5 km/h 69 % 0 mm
04:38 14.2 °C 8.6 °C 1015.8 hPa NE 6.6 km/h 16.7 km/h 69 % 0 mm
04:43 14.1 °C 8.4 °C 1015.8 hPa North 6.6 km/h 13 km/h 69 % 0 mm
04:48 13.9 °C 8.1 °C 1016.1 hPa NNE 4.7 km/h 7.4 km/h 68 % 0 mm
04:53 13.9 °C 8.3 °C 1016.1 hPa NNW 0.8 km/h 6.4 km/h 69 % 0 mm
04:58 13.8 °C 8.2 °C 1015.8 hPa North 7.7 km/h 18.5 km/h 69 % 0 mm
05:03 13.7 °C 8.1 °C 1016.1 hPa NNW 6.8 km/h 14.5 km/h 69 % 0 mm
05:08 13.7 °C 8.1 °C 1016.1 hPa North 7.6 km/h 14.8 km/h 69 % 0 mm
05:14 13.6 °C 8 °C 1016.1 hPa North 6 km/h 18.5 km/h 69 % 0 mm
05:19 13.4 °C 7.7 °C 1016.5 hPa NNE 9.2 km/h 18.5 km/h 68 % 0 mm
05:24 13.4 °C 7.6 °C 1016.5 hPa North 9.7 km/h 12.9 km/h 68 % 0 mm
05:29 13.3 °C 7.6 °C 1016.5 hPa NE 9 km/h 18.5 km/h 68 % 0 mm
05:34 13.3 °C 7.5 °C 1016.5 hPa North 9.8 km/h 20.4 km/h 68 % 0 mm
05:39 13.3 °C 7.3 °C 1016.5 hPa North 6.4 km/h 14.8 km/h 67 % 0 mm
05:44 13.2 °C 7.4 °C 1016.5 hPa NNE 7.2 km/h 14.8 km/h 68 % 0 mm
05:49 13.2 °C 7.6 °C 1016.8 hPa NNE 3.2 km/h 8 km/h 69 % 0 mm
05:54 13.1 °C 7.3 °C 1016.8 hPa NE 9.7 km/h 16.7 km/h 68 % 0 mm
05:59 13.1 °C 7.5 °C 1016.8 hPa NNW 2.9 km/h 9.3 km/h 69 % 0 mm
06:04 13.1 °C 7.3 °C 1016.8 hPa NE 3.9 km/h 13 km/h 68 % 0 mm
06:09 13.1 °C 7.6 °C 1017.2 hPa NNW 10.8 km/h 13 km/h 69 % 0 mm
06:14 13.1 °C 7.3 °C 1017.2 hPa NNW 4.2 km/h 9.3 km/h 68 % 0 mm
06:19 13.1 °C 7.3 °C 1017.5 hPa NNE 5.3 km/h 14.5 km/h 68 % 0 mm
06:24 13.1 °C 7.1 °C 1017.5 hPa NNW 2.7 km/h 11.3 km/h 67 % 0 mm
06:29 13.1 °C 7.1 °C 1017.2 hPa NNE 9.2 km/h 11.1 km/h 67 % 0 mm
06:34 13.1 °C 6.8 °C 1017.2 hPa North 6.9 km/h 16.7 km/h 66 % 0 mm
06:39 13.1 °C 7.3 °C 1017.2 hPa NE 6.8 km/h 13 km/h 68 % 0 mm
06:44 13.1 °C 7.3 °C 1017.2 hPa NNE 6.9 km/h 13 km/h 68 % 0 mm
06:49 13.1 °C 7.5 °C 1017.5 hPa North 6.9 km/h 16.1 km/h 69 % 0 mm
06:55 13.1 °C 7.3 °C 1017.5 hPa NNE 8.7 km/h 16.7 km/h 68 % 0 mm
07:00 13.1 °C 7.3 °C 1017.5 hPa North 6 km/h 16.7 km/h 68 % 0 mm
07:05 13.2 °C 7.4 °C 1017.5 hPa North 11.1 km/h 13 km/h 68 % 0 mm
07:10 13.2 °C 7.4 °C 1017.5 hPa NNE 6 km/h 14.8 km/h 68 % 0 mm
07:15 13.2 °C 7.4 °C 1017.8 hPa NE 7.1 km/h 8 km/h 68 % 0 mm
07:20 13.2 °C 7.2 °C 1017.8 hPa NW 2.7 km/h 18.5 km/h 67 % 0 mm
07:25 13.2 °C 7.2 °C 1017.8 hPa North 10.8 km/h 11.3 km/h 67 % 0 mm
07:30 13.2 °C 7.2 °C 1017.8 hPa NNE 5.1 km/h 14.8 km/h 67 % 0 mm
07:35 13.2 °C 7.4 °C 1017.8 hPa North 10.5 km/h 14.8 km/h 68 % 0 mm
07:40 13.3 °C 7.1 °C 1017.8 hPa ENE 3.4 km/h 13 km/h 66 % 0 mm
07:45 13.3 °C 7.1 °C 1017.8 hPa NE 8.4 km/h 14.8 km/h 66 % 0 mm
07:50 13.3 °C 6.9 °C 1017.8 hPa NNW 6.4 km/h 11.1 km/h 65 % 0 mm
07:55 13.3 °C 7.3 °C 1017.8 hPa NNE 7.4 km/h 11.1 km/h 67 % 0 mm
08:00 13.3 °C 7.3 °C 1018.2 hPa WNW 5.3 km/h 11.1 km/h 67 % 0 mm
08:05 13.4 °C 6.9 °C 1017.8 hPa NW 4.3 km/h 7.4 km/h 65 % 0 mm
08:10 13.4 °C 7.2 °C 1018.2 hPa NW 1.6 km/h 6.4 km/h 66 % 0 mm
08:15 13.4 °C 7 °C 1017.8 hPa NNE 5.8 km/h 11.1 km/h 65 % 0 mm
08:20 13.5 °C 7.3 °C 1018.2 hPa WNW 4.2 km/h 11.3 km/h 66 % 0 mm
08:25 13.5 °C 7.3 °C 1018.2 hPa North 2.9 km/h 9.3 km/h 66 % 0 mm
08:30 13.6 °C 7.1 °C 1018.2 hPa NW 1.4 km/h 11.1 km/h 65 % 0 mm
08:35 13.6 °C 7.1 °C 1018.2 hPa NW 2.6 km/h 13 km/h 65 % 0 mm
08:40 13.6 °C 7.2 °C 1018.2 hPa NE 6.1 km/h 6.4 km/h 65 % 0 mm
08:45 13.7 °C 7.4 °C 1018.5 hPa NW 3.5 km/h 5.6 km/h 66 % 0 mm
08:50 13.8 °C 7.6 °C 1018.2 hPa WNW 2.6 km/h 7.4 km/h 66 % 0 mm
08:55 13.9 °C 7.8 °C 1018.2 hPa North 1.1 km/h 11.1 km/h 67 % 0 mm
09:01 13.9 °C 7.4 °C 1018.2 hPa WNW 5.3 km/h 6.4 km/h 65 % 0 mm
09:06 14 °C 7.3 °C 1018.2 hPa North 8.2 km/h 13 km/h 64 % 0 mm
09:11 14.1 °C 7.3 °C 1018.5 hPa North 4.3 km/h 7.4 km/h 64 % 0 mm
09:16 14.1 °C 7.4 °C 1018.2 hPa NE 5.8 km/h 11.1 km/h 64 % 0 mm
09:21 14.2 °C 7.7 °C 1018.2 hPa North 7.4 km/h 14.5 km/h 65 % 0 mm
09:26 14.3 °C 7.3 °C 1018.2 hPa NW 4.3 km/h 11.1 km/h 63 % 0 mm
09:31 14.4 °C 7.7 °C 1018.2 hPa NNW 5.6 km/h 13 km/h 64 % 0 mm
09:36 14.6 °C 7.8 °C 1018.2 hPa NNE 2.6 km/h 5.6 km/h 64 % 0 mm
09:41 14.7 °C 8 °C 1018.2 hPa NNE 2.7 km/h 9.3 km/h 64 % 0 mm
09:46 15 °C 8.4 °C 1018.2 hPa West 2.7 km/h 5.6 km/h 65 % 0 mm
09:51 15.4 °C 7.9 °C 1018.2 hPa North 6.3 km/h 9.7 km/h 61 % 0 mm
09:56 15.9 °C 8.2 °C 1018.2 hPa NNE 4.8 km/h 12.9 km/h 60 % 0 mm
10:01 16.3 °C 8.3 °C 1018.2 hPa WSW 2.9 km/h 6.4 km/h 59 % 0 mm
10:07 16.6 °C 8.3 °C 1018.2 hPa North 5.3 km/h 9.3 km/h 58 % 0 mm
10:11 16.7 °C 8.1 °C 1018.2 hPa NNW 8.7 km/h 13 km/h 57 % 0 mm
10:17 16.7 °C 7.8 °C 1018.2 hPa North 4 km/h 11.1 km/h 56 % 0 mm
10:22 16.6 °C 7.8 °C 1018.2 hPa NW 6.4 km/h 18.5 km/h 56 % 0 mm
10:27 16.6 °C 8 °C 1018.2 hPa NNE 6.3 km/h 9.3 km/h 57 % 0 mm
10:32 16.5 °C 7.9 °C 1018.2 hPa NW 3.7 km/h 5.6 km/h 57 % 0 mm
10:37 16.5 °C 7.7 °C 1018.2 hPa NNW 2.9 km/h 11.1 km/h 56 % 0 mm
10:42 16.6 °C 7.5 °C 1018.2 hPa WNW 3.7 km/h 16.7 km/h 55 % 0 mm
10:47 16.6 °C 8.1 °C 1018.2 hPa NW 4 km/h 7.4 km/h 57 % 0 mm
10:52 16.7 °C 7.8 °C 1018.2 hPa West 5.8 km/h 13 km/h 56 % 0 mm
10:57 16.9 °C 7.2 °C 1018.2 hPa North 5.8 km/h 9.3 km/h 53 % 0 mm
11:02 17.3 °C 7.9 °C 1018.2 hPa NNW 4.3 km/h 9.3 km/h 54 % 0 mm
11:07 17.8 °C 7.6 °C 1018.5 hPa NW 3.2 km/h 7.4 km/h 51 % 0 mm
11:12 18.3 °C 8 °C 1018.2 hPa North 8.9 km/h 13 km/h 51 % 0 mm
11:17 18.8 °C 8.8 °C 1018.2 hPa NW 3.5 km/h 5.6 km/h 52 % 0 mm
11:22 19.4 °C 7.8 °C 1018.5 hPa WNW 7.7 km/h 11.1 km/h 47 % 0 mm
11:27 19.8 °C 7.9 °C 1018.5 hPa North 7.4 km/h 9.3 km/h 46 % 0 mm
11:32 20.2 °C 8.2 °C 1018.2 hPa North 3.1 km/h 7.4 km/h 46 % 0 mm
11:37 20.4 °C 8.4 °C 1018.2 hPa NW 7.1 km/h 11.3 km/h 46 % 0 mm
11:42 20.8 °C 10 °C 1018.2 hPa NE 2.3 km/h 5.6 km/h 50 % 0 mm
11:47 21.2 °C 7.7 °C 1018.2 hPa WNW 5.1 km/h 13 km/h 42 % 0 mm
11:52 21.4 °C 8.7 °C 1018.2 hPa North 1.1 km/h 7.4 km/h 44 % 0 mm
11:57 21.8 °C 10.3 °C 1018.2 hPa NW 0.8 km/h 5.6 km/h 48 % 0 mm
12:02 22.1 °C 8.2 °C 1018.2 hPa WNW 1 km/h 9.3 km/h 41 % 0 mm
12:07 22.3 °C 7.7 °C 1018.2 hPa NW 3.7 km/h 13 km/h 39 % 0 mm
12:12 22.3 °C 8.1 °C 1018.2 hPa WNW 3.4 km/h 7.4 km/h 40 % 0 mm
12:18 22.5 °C 8.6 °C 1018.2 hPa West 4.7 km/h 9.3 km/h 41 % 0 mm
12:23 22.6 °C 10.1 °C 1018.2 hPa NE 4.5 km/h 11.1 km/h 45 % 0 mm
12:28 22.9 °C 9 °C 1018.2 hPa North 5.3 km/h 12.9 km/h 41 % 0 mm
12:33 23 °C 9.1 °C 1017.8 hPa NW 2.4 km/h 11.1 km/h 41 % 0 mm
12:38 23.1 °C 9.1 °C 1017.8 hPa NW 6.1 km/h 14.8 km/h 41 % 0 mm
12:43 23.2 °C 8.9 °C 1017.8 hPa NNE 4.5 km/h 9.3 km/h 40 % 0 mm
12:44 23.2 °C 9.2 °C 1017.8 hPa NNW 1.8 km/h 9.3 km/h 41 % 0 mm
12:49 23.3 °C 10 °C 1017.8 hPa NNE 1.6 km/h 7.4 km/h 43 % 0 mm
12:54 23.3 °C 10.1 °C 1017.8 hPa North 0.5 km/h 9.3 km/h 43 % 0 mm
12:59 23.3 °C 7.8 °C 1017.8 hPa NNE 8.2 km/h 13 km/h 37 % 0 mm
13:04 23.3 °C 10.1 °C 1017.8 hPa NNW 7.7 km/h 14.8 km/h 43 % 0 mm
13:09 23.3 °C 9.7 °C 1017.8 hPa NW 2.7 km/h 7.4 km/h 42 % 0 mm
13:14 23.3 °C 8.2 °C 1017.8 hPa NW 1.8 km/h 5.6 km/h 38 % 0 mm
13:19 23.3 °C 9.7 °C 1017.8 hPa NNW 1 km/h 8 km/h 42 % 0 mm
13:24 23.4 °C 7.9 °C 1017.8 hPa NNW 1.6 km/h 5.6 km/h 37 % 0 mm
13:29 23.5 °C 7.2 °C 1017.5 hPa WNW 8.7 km/h 16.1 km/h 35 % 0 mm
13:34 23.3 °C 7.4 °C 1017.5 hPa WNW 3.4 km/h 8 km/h 36 % 0 mm
13:39 23.3 °C 8.6 °C 1017.5 hPa SW 5.8 km/h 13 km/h 39 % 0 mm
13:44 23.3 °C 7 °C 1017.5 hPa NNW 5.5 km/h 13 km/h 35 % 0 mm
13:49 23.4 °C 8.3 °C 1017.5 hPa West 2.7 km/h 7.4 km/h 38 % 0 mm
13:54 23.5 °C 8.3 °C 1017.5 hPa WNW 3.7 km/h 7.4 km/h 38 % 0 mm
13:59 23.6 °C 7.2 °C 1017.5 hPa NNE 2.4 km/h 7.4 km/h 35 % 0 mm
14:04 23.6 °C 8.8 °C 1017.2 hPa NNE 0.3 km/h 1.9 km/h 39 % 0 mm
14:09 23.7 °C 8.1 °C 1017.2 hPa WNW 3.5 km/h 6.4 km/h 37 % 0 mm
14:14 23.7 °C 7.8 °C 1017.2 hPa NW 3.7 km/h 8 km/h 36 % 0 mm
14:19 23.7 °C 7.3 °C 1017.2 hPa NW 3.5 km/h 5.6 km/h 35 % 0 mm
14:24 23.7 °C 7.8 °C 1017.2 hPa North 1 km/h 9.3 km/h 36 % 0 mm
14:29 23.7 °C 8.5 °C 1017.2 hPa NW 3.1 km/h 5.6 km/h 38 % 0 mm
14:34 23.7 °C 8.6 °C 1017.2 hPa NW 3.9 km/h 6.4 km/h 38 % 0 mm
14:39 23.7 °C 6.9 °C 1017.2 hPa NNW 5.3 km/h 11.1 km/h 34 % 0 mm
14:44 23.7 °C 7.3 °C 1017.2 hPa NNE 1.9 km/h 5.6 km/h 35 % 0 mm
14:49 23.7 °C 8.6 °C 1016.8 hPa NNE 3.9 km/h 8 km/h 38 % 0 mm
14:54 23.6 °C 7.2 °C 1017.2 hPa NW 4.7 km/h 9.7 km/h 35 % 0 mm
15:00 23.6 °C 6.8 °C 1017.2 hPa WNW 3.9 km/h 11.1 km/h 34 % 0 mm
15:05 23.6 °C 7.6 °C 1017.2 hPa NW 3.9 km/h 6.4 km/h 36 % 0 mm
15:10 23.5 °C 7.2 °C 1017.2 hPa West 5.8 km/h 12.9 km/h 35 % 0 mm
15:15 23.4 °C 7.1 °C 1017.2 hPa West 7.6 km/h 13 km/h 35 % 0 mm
15:20 23.4 °C 7.1 °C 1017.2 hPa NNW 2.6 km/h 8 km/h 35 % 0 mm
15:25 23.5 °C 7.6 °C 1016.8 hPa WNW 1.1 km/h 5.6 km/h 36 % 0 mm
15:30 23.6 °C 8 °C 1016.8 hPa NNW 3.5 km/h 9.7 km/h 37 % 0 mm
15:35 23.6 °C 6.8 °C 1016.8 hPa WNW 3.2 km/h 5.6 km/h 34 % 0 mm
15:40 23.7 °C 8.1 °C 1016.8 hPa NNE 1.9 km/h 5.6 km/h 37 % 0 mm
15:45 23.6 °C 7.2 °C 1016.8 hPa WNW 1.1 km/h 4.8 km/h 35 % 0 mm
15:50 23.6 °C 6.8 °C 1016.8 hPa WNW 1.3 km/h 3.7 km/h 34 % 0 mm
15:55 23.6 °C 7.6 °C 1016.8 hPa North 3.2 km/h 5.6 km/h 36 % 0 mm
16:00 23.5 °C 8.3 °C 1016.8 hPa NNW 0.3 km/h 1.9 km/h 38 % 0 mm
16:05 23.5 °C 7.6 °C 1016.8 hPa NW 5.6 km/h 9.3 km/h 36 % 0 mm
16:10 23.4 °C 7.9 °C 1016.8 hPa West 3.7 km/h 11.1 km/h 37 % 0 mm
16:15 23.4 °C 7.4 °C 1016.8 hPa NW 5.6 km/h 11.1 km/h 36 % 0 mm
16:20 23.3 °C 7.8 °C 1016.5 hPa WNW 2.9 km/h 6.4 km/h 37 % 0 mm
16:25 23.2 °C 8.9 °C 1016.8 hPa WNW 3.2 km/h 5.6 km/h 40 % 0 mm
16:30 23.1 °C 8.4 °C 1016.8 hPa WNW 5 km/h 7.4 km/h 39 % 0 mm
16:35 23.1 °C 9.1 °C 1016.8 hPa West 2.9 km/h 4.8 km/h 41 % 0 mm
16:40 22.9 °C 8.2 °C 1016.8 hPa WSW 2.4 km/h 9.7 km/h 39 % 0 mm
16:45 22.8 °C 7.3 °C 1016.8 hPa West 6.9 km/h 9.3 km/h 37 % 0 mm
16:50 22.7 °C 8 °C 1016.8 hPa West 4.8 km/h 7.4 km/h 39 % 0 mm
16:55 22.6 °C 7.5 °C 1016.8 hPa West 6.1 km/h 9.3 km/h 38 % 0 mm
17:00 22.6 °C 7.9 °C 1016.8 hPa NNE 1.9 km/h 11.1 km/h 39 % 0 mm
17:05 22.4 °C 7.8 °C 1016.8 hPa NW 1.9 km/h 4.8 km/h 39 % 0 mm
17:10 22.3 °C 8.1 °C 1016.5 hPa NW 2.7 km/h 5.6 km/h 40 % 0 mm
17:15 22.2 °C 7.9 °C 1016.8 hPa WNW 4.3 km/h 9.3 km/h 40 % 0 mm
17:21 22.2 °C 7.9 °C 1016.5 hPa WNW 2.9 km/h 4.8 km/h 40 % 0 mm
17:26 22.1 °C 8.2 °C 1016.5 hPa Calm   8 km/h 41 % 0 mm
17:31 22 °C 8.1 °C 1016.5 hPa WNW 3.2 km/h 9.7 km/h 41 % 0 mm
17:36 21.9 °C 7.7 °C 1016.8 hPa WNW 3.2 km/h 9.7 km/h 40 % 0 mm
17:41 21.8 °C 7.2 °C 1016.5 hPa WNW 4.8 km/h 7.4 km/h 39 % 0 mm
17:51 21.6 °C 7.4 °C 1016.8 hPa WNW 2.3 km/h 5.6 km/h 40 % 0 mm
17:56 21.5 °C 7.3 °C 1016.8 hPa WNW 3.1 km/h 11.1 km/h 40 % 0 mm
18:01 21.3 °C 7.6 °C 1016.8 hPa WNW 2.1 km/h 5.6 km/h 41 % 0 mm
18:06 21.2 °C 7.4 °C 1016.8 hPa NW 6.9 km/h 11.1 km/h 41 % 0 mm
18:11 21.1 °C 7.7 °C 1016.8 hPa WNW 0.8 km/h 4.8 km/h 42 % 0 mm
18:16 21 °C 7.6 °C 1016.5 hPa WNW 3.9 km/h 9.3 km/h 42 % 0 mm
18:21 20.9 °C 7.5 °C 1016.8 hPa WNW 2.3 km/h 5.6 km/h 42 % 0 mm
18:26 20.8 °C 8.1 °C 1016.8 hPa West 0.2 km/h 1.9 km/h 44 % 0 mm
18:31 20.7 °C 7.6 °C 1016.8 hPa NNW 1 km/h 5.6 km/h 43 % 0 mm
18:36 20.5 °C 7.5 °C 1016.8 hPa WNW 0.6 km/h 4.8 km/h 43 % 0 mm
18:41 20.4 °C 8.1 °C 1016.8 hPa ENE 4.3 km/h 5.6 km/h 45 % 0 mm
18:46 20.3 °C 7.6 °C 1017.2 hPa NNW 0.5 km/h 6.4 km/h 44 % 0 mm
18:51 20.2 °C 7.2 °C 1017.2 hPa WSW 2.6 km/h 9.3 km/h 43 % 0 mm
18:56 20.1 °C 7.4 °C 1017.2 hPa NW 3.7 km/h 9.3 km/h 44 % 0 mm
19:01 19.9 °C 7.3 °C 1017.2 hPa NNW 0.5 km/h 3.7 km/h 44 % 0 mm
19:07 19.8 °C 7.2 °C 1017.2 hPa WNW 0.8 km/h 5.6 km/h 44 % 0 mm
19:12 19.8 °C 7.2 °C 1017.2 hPa WSW 3.7 km/h 5.6 km/h 44 % 0 mm
19:17 19.7 °C 7.4 °C 1017.2 hPa NW 3.2 km/h 5.6 km/h 45 % 0 mm
19:22 19.7 °C 7.4 °C 1017.5 hPa NW 0.5 km/h 9.3 km/h 45 % 0 mm
19:27 19.6 °C 7.3 °C 1017.5 hPa NNW 0.2 km/h 1.6 km/h 45 % 0 mm
19:32 19.5 °C 6.9 °C 1017.5 hPa NNE 1.4 km/h 5.6 km/h 44 % 0 mm
19:37 19.4 °C 7.2 °C 1017.8 hPa WNW 0.2 km/h 1.6 km/h 45 % 0 mm
19:42 19.4 °C 7.2 °C 1017.8 hPa Calm   1.9 km/h 45 % 0 mm
19:47 19.3 °C 7.1 °C 1017.8 hPa WNW 2.6 km/h 5.6 km/h 45 % 0 mm
19:52 19.3 °C 7.1 °C 1017.8 hPa WNW 0.5 km/h 1.9 km/h 45 % 0 mm
19:57 19.2 °C 7.3 °C 1017.8 hPa WNW 0.3 km/h 1.9 km/h 46 % 0 mm
20:02 19.2 °C 6.9 °C 1018.2 hPa WNW 3.9 km/h 7.4 km/h 45 % 0 mm
20:07 19.1 °C 6.9 °C 1018.2 hPa West 4.7 km/h 11.1 km/h 45 % 0 mm
20:12 19.1 °C 7.2 °C 1018.2 hPa WNW 0.3 km/h 3.7 km/h 46 % 0 mm
20:17 19.1 °C 7.5 °C 1018.5 hPa Calm   1.9 km/h 47 % 0 mm
20:23 19.1 °C 7.8 °C 1018.5 hPa West 1 km/h 7.4 km/h 48 % 0 mm
20:27 19.1 °C 7.8 °C 1018.5 hPa West 2.3 km/h 4.8 km/h 48 % 0 mm
20:32 19.1 °C 7.8 °C 1018.8 hPa WNW 2.9 km/h 7.4 km/h 48 % 0 mm
20:37 19 °C 7.7 °C 1018.5 hPa NW 1.9 km/h 5.6 km/h 48 % 0 mm
20:42 18.9 °C 7.7 °C 1018.5 hPa WNW 0.5 km/h 5.6 km/h 48 % 0 mm
20:47 18.9 °C 7.7 °C 1018.8 hPa North 3.1 km/h 8 km/h 48 % 0 mm
20:53 18.9 °C 7.9 °C 1018.8 hPa NE 2.4 km/h 9.3 km/h 49 % 0 mm
20:58 18.9 °C 8 °C 1018.8 hPa WNW 4.7 km/h 7.4 km/h 49 % 0 mm
21:03 18.9 °C 8.6 °C 1018.8 hPa NNE 3.4 km/h 7.4 km/h 51 % 0 mm
21:08 18.9 °C 9.2 °C 1019.2 hPa NNE 4.3 km/h 6.4 km/h 53 % 0 mm
21:13 18.9 °C 9.4 °C 1019.2 hPa ENE 2.1 km/h 9.7 km/h 54 % 0 mm
21:18 18.9 °C 9.4 °C 1019.2 hPa ENE 1 km/h 3.7 km/h 54 % 0 mm
21:23 18.8 °C 9.1 °C 1019.2 hPa NNE 6.1 km/h 11.1 km/h 53 % 0 mm
21:28 18.8 °C 8.7 °C 1018.8 hPa NNE 5 km/h 7.4 km/h 52 % 0 mm
21:33 18.7 °C 8.9 °C 1018.8 hPa North 6.9 km/h 11.1 km/h 53 % 0 mm
21:38 18.6 °C 8.8 °C 1018.8 hPa ENE 4.2 km/h 9.3 km/h 53 % 0 mm
21:43 18.6 °C 8.8 °C 1019.2 hPa NNE 3.9 km/h 9.3 km/h 53 % 0 mm
21:48 18.6 °C 8.8 °C 1019.2 hPa NNE 6.3 km/h 9.3 km/h 53 % 0 mm
21:53 18.5 °C 8.7 °C 1019.5 hPa NNW 2.4 km/h 7.4 km/h 53 % 0 mm
21:58 18.4 °C 8.4 °C 1019.5 hPa ENE 2.7 km/h 11.3 km/h 52 % 0 mm
22:03 18.4 °C 8.7 °C 1019.9 hPa NNE 2.9 km/h 8 km/h 53 % 0 mm
22:08 18.3 °C 8.3 °C 1019.9 hPa NNE 5.1 km/h 7.4 km/h 52 % 0 mm
22:13 18.3 °C 7.9 °C 1019.9 hPa NNE 4.5 km/h 5.6 km/h 51 % 0 mm
22:18 18.2 °C 8.5 °C 1019.9 hPa ENE 7.2 km/h 11.1 km/h 53 % 0 mm
22:23 18.2 °C 8.2 °C 1019.9 hPa NE 9 km/h 14.8 km/h 52 % 0 mm
22:24 18.2 °C 8.4 °C 1019.9 hPa NNE 6.3 km/h 9.7 km/h 53 % 0 mm
22:29 18.2 °C 9 °C 1019.9 hPa NE 5.6 km/h 13 km/h 55 % 0 mm
22:34 18.1 °C 8.9 °C 1020.2 hPa NNE 1.4 km/h 11.1 km/h 55 % 0 mm
22:39 18.1 °C 8.3 °C 1020.5 hPa NE 5.6 km/h 11.3 km/h 53 % 0 mm
22:44 17.9 °C 7.4 °C 1020.5 hPa NNE 5.5 km/h 13 km/h 50 % 0 mm
22:49 17.8 °C 6.9 °C 1020.5 hPa NNE 5.1 km/h 11.3 km/h 49 % 0 mm
22:54 17.8 °C 6.9 °C 1020.5 hPa NNE 6.8 km/h 9.7 km/h 49 % 0 mm
22:59 17.6 °C 7.1 °C 1020.5 hPa North 3.9 km/h 7.4 km/h 50 % 0 mm
23:04 17.6 °C 6.7 °C 1020.2 hPa NNE 7.6 km/h 13 km/h 49 % 0 mm
23:06 17.6 °C 6.7 °C 1020.2 hPa NNE 8 km/h 12.9 km/h 49 % 0 mm
23:11 17.4 °C 7.5 °C 1020.2 hPa NNE 9.3 km/h 18.5 km/h 52 % 0 mm
23:16 17.3 °C 7.1 °C 1020.2 hPa NNE 9.2 km/h 18.5 km/h 51 % 0 mm
23:21 17.3 °C 7.1 °C 1020.2 hPa NNE 12.6 km/h 18.5 km/h 51 % 0 mm
23:23 17.3 °C 7.1 °C 1020.2 hPa NNE 10.6 km/h 16.7 km/h 51 % 0 mm
23:26 17.3 °C 7.1 °C 1020.2 hPa NNE 9.7 km/h 19.3 km/h 51 % 0 mm
23:31 17.3 °C 7.3 °C 1020.2 hPa NNE 8 km/h 14.5 km/h 52 % 0 mm
23:34 17.3 °C 7.3 °C 1020.2 hPa North 9.5 km/h 18.5 km/h 52 % 0 mm
23:37 17.3 °C 7.6 °C 1020.2 hPa NNE 13.5 km/h 24.1 km/h 53 % 0 mm
23:42 17.2 °C 7.6 °C 1020.2 hPa North 12.6 km/h 24.1 km/h 53 % 0 mm
23:47 17.2 °C 7.5 °C 1020.2 hPa NNE 8.5 km/h 13 km/h 53 % 0 mm
23:52 17.2 °C 7.2 °C 1020.2 hPa NNE 12.1 km/h 20.4 km/h 52 % 0 mm
23:57 17.1 °C 7.7 °C 1020.5 hPa North 7.1 km/h 11.1 km/h 54 % 0 mm
Crab Meadow Weather
Compliments of Weather Underground - 3 mb

Script developed by  Jim McMurry - jmcmurry@mwt.net Adapted for the template by  Wim van der Kuil - Leuven-Template.eu

Heat Index: The heat index combines air temperature and dew point in an attempt to determine the human-perceived equivalent temperature - how hot it feels. The human body normally cools itself by sweating, which evaporates and carries heat away from the body. However, when the relative humidity is high the evaporation rate is reduced, so heat is removed from the body at a lower rate causing it to retain more heat than it would in dry air.